This demonstration page uses our WeatherBlox Daily Observations layout. Learn more.

Left ArrowRight Arrow

39.08367, -84.50855

Hourly Observations for May 8, 2020

Temp ( °F °C ) Dew Point ( °F °C ) Humidity (%) Winds ( mph kmh ) Pressure ( in mb ) Visibility ( mi km ) Precip ( " mm )
12:53 am 00:53 Mostly Clear 51 10.6 42 5.6 71 71 SSW 10 17 29.93 1014 10 16.0934 0 0
1:53 am 01:53 Cloudy 54 12.2 44 6.7 69 69 SSW 9 15 29.91 1013 10 16.0934 0 0
2:53 am 02:53 Mostly Clear 54 12.2 43 6.1 67 67 SW 7 11 29.89 1012 10 16.0934 0 0
3:53 am 03:53 Cloudy 54 12.2 43 6.1 67 67 SW 7 11 29.88 1012 10 16.0934 0 0
4:53 am 04:53 Cloudy 56 13.3 43 6.1 62 62 WNW 8 13 29.88 1012 10 16.0934 0.001 0.001
5:53 am 05:53 Cloudy with Light Rain 53 11.7 46 7.8 77 77 W 6 9 29.86 1011 10 16.0934 0.001 0.001
6:53 am 06:53 Cloudy with Light Rain 51 10.6 48 8.9 89 89 SSW 5 7 29.85 1011 10 16.0934 0.001 0.001
7:53 am 07:53 Cloudy with Light Rain 51 10.6 49 9.4 92 92 SW 7 11 29.85 1011 4 6.43736 0.03 0.762
8:13 am 08:13 Cloudy with Rain 51 10.6 49 9.4 92 92 SW 7 11 29.87 1011 2.5 4.02335 0.02 0.508
8:15 am 08:15 Cloudy with Rain 51 10.6 49 9.4 92 92 SW 7 11 29.87 1011 3 4.82802 0.03 0.762
8:22 am 08:22 Cloudy with Rain 51 10.6 49 9.4 92 92 WSW 6 9 29.87 1011 3 4.82802 0.05 1.27
8:40 am 08:40 Cloudy with Rain 51 10.6 49 9.4 92 92 WSW 3 6 29.86 1011 3 4.82802 0.08 2.032
8:53 am 08:53 Cloudy with Rain 51 10.6 49 9.4 92 92 W 3 6 29.83 1010 3 4.82802 0.1 2.54
9:04 am 09:04 Cloudy with Rain 51 10.6 50 10 96 96 WSW 6 9 29.85 1011 3 4.82802 0.02 0.508
9:13 am 09:13 Cloudy with Heavy Rain 51 10.6 50 10 96 96 W 3 6 29.84 1010 3 4.82802 0.05 1.27
9:17 am 09:17 Cloudy with Rain 51 10.6 49 9.4 92 92 NW 5 7 29.83 1010 3 4.82802 0.06 1.524
9:24 am 09:24 Cloudy with Light Rain 51 10.6 49 9.4 92 92 W 6 9 29.84 1010 3 4.82802 0.07 1.778
9:53 am 09:53 Cloudy with Light Rain 51 10.6 48 8.9 89 89 NNW 7 11 29.82 1010 5 8.0467 0.1 2.54
10:04 am 10:04 Cloudy with Light Rain 51 10.6 48 8.9 89 89 NW 6 9 29.83 1010 6 9.65604 0.01 0.254
10:53 am 10:53 Cloudy with Light Rain 51 10.6 48 8.9 89 89 NW 3 6 29.82 1010 4 6.43736 0.06 1.524
11:53 am 11:53 Cloudy with Light Rain 51 10.6 48 8.9 89 89 VRB 5 7 29.83 1010 4 6.43736 0.07 1.778
12:53 pm 12:53 Cloudy with Light Rain 49 9.4 44 6.7 83 83 NW 13 20 29.85 1011 7 11.26538 0.05 1.27
1:53 pm 13:53 Cloudy 51 10.6 43 6.1 74 74 WNW 5 7 29.83 1010 10 16.0934 0.01 0.254
2:40 pm 14:40 Cloudy with Light Rain 50 10 42 5.6 74 74 WNW 5 7 29.86 1011 10 16.0934 0.03 0.762
2:53 pm 14:53 Mostly Cloudy 50 10 42 5.6 74 74 WNW 5 7 29.86 1011 10 16.0934 0.03 0.762
3:53 pm 15:53 Mostly Cloudy 51 10.6 37 2.8 59 59 N 14 22 29.88 1012 10 16.0934 0 0
4:53 pm 16:53 Mostly Cloudy 52 11.1 33 0.6 49 49 N 17 28 29.89 1012 10 16.0934 0 0
5:53 pm 17:53 Cloudy 51 10.6 31 -0.6 46 46 N 16 26 29.91 1013 10 16.0934 0 0
6:53 pm 18:53 Mostly Cloudy 53 11.7 29 -1.7 40 40 NW 17 28 29.92 1013 10 16.0934 0 0
7:53 pm 19:53 Partly Cloudy 51 10.6 23 -5 33 33 NW 12 19 29.96 1015 10 16.0934 0 0
8:53 pm 20:53 Clear 47 8.3 21 -6.1 36 36 NNW 10 17 30.02 1017 10 16.0934 0 0
9:53 pm 21:53 Clear 43 6.1 19 -7.2 38 38 NNW 12 19 30.09 1019 10 16.0934 0 0
10:53 pm 22:53 Clear 40 4.4 19 -7.2 43 43 NW 9 15 30.14 1021 10 16.0934 0 0
11:53 pm 23:53 Clear 38 3.3 14 -10 37 37 VRB 6 9 30.15 1021 10 16.0934 0 0

Powered by AerisWeather